Terug naar catalogus

COSMOS 839 DEB

ActiefUNKNOWN
NORAD 10623·DEBRIS·🇷🇺 Russia

Gelanceerd Jul 8, 1976 vanaf Plesetsk Cosmodrome

Loading…

Volgende Passages (komende 24 uur)

TLE

VersSource: Space-Track

Epoch: Sep 14, 2026, 06:40 UTC

1 10623U 76067AX  26257.27819625  .00000174  00000-0  70743-3 0  9996
2 10623  65.7743 207.8996 0694939 358.5970  67.3069 12.43024561272385

Volg COSMOS 839 DEB in realtime met AllMySat

Download on the App Store